CW8496 Weather Reports


Display with metric or nautical units.
time (UTC)temp
F
wind
direction
speed
MPH
gust
MPH
rain 1hr
in
rain 24hr
in
rain mn
in
humidity
%
barometer
mb
20260502123016 56 113 4.0 14.0 0.00 0.00 0.00 87 1031.6
20260502113037 57 113 3.0 14.0 0.00 0.00 0.00 86 1031.3
20260502110020 57 113 3.0 13.0 0.00 0.00 0.00 84 1031.2
20260502103045 58 135 2.0 8.0 0.00 0.00 0.00 82 1031.1
20260502070017 63 0 3.0 6.0 0.00 0.00 0.00 68 1030.7
20260502063058 64 23 3.0 8.0 0.00 0.00 0.00 65 1031.0
20260502060017 64 23 3.0 10.0 0.00 0.00 0.00 69 1031.1
20260502053019 64 0 3.0 10.0 0.00 0.00 0.00 68 1031.3
20260502050018 65 45 3.0 8.0 0.00 0.00 0.00 66 1031.4
20260502043017 64 0 4.0 10.0 0.00 0.00 0.00 68 1031.3
20260502040019 65 23 4.0 11.0 0.00 0.00 0.00 67 1031.8
20260502033017 65 0 3.0 10.0 0.00 0.00 0.00 69 1031.9
20260502030057 64 45 3.0 10.0 0.00 0.00 0.00 71 1032.3
20260502023018 65 23 3.0 9.0 0.00 0.00 0.00 68 1032.6
20260502020017 64 0 4.0 12.0 0.00 0.00 0.00 70 1033.3
20260502013017 65 23 4.0 11.0 0.00 0.00 0.00 70 1033.7
20260502010057 63 23 4.0 11.0 0.00 0.00 0.00 76 1034.0
20260502003017 63 45 3.0 10.0 0.00 0.00 0.00 77 1034.8
20260502000016 61 113 3.0 11.0 0.00 0.00 0.00 81 1034.8
20260501233016 60 90 3.0 11.0 0.00 0.00 0.00 82 1034.7
20260501230057 58 45 3.0 10.0 0.00 0.00 0.00 87 1034.5
20260501223037 57 113 3.0 11.0 0.00 0.00 0.00 91 1034.3
20260501220018 54 113 4.0 13.0 0.00 0.00 0.00 92 1033.8
20260501213117 54 113 4.0 13.0 0.00 0.00 0.00 92 1033.7
20260501210018 53 113 5.0 15.0 0.00 0.00 0.00 92 1033.5
20260501203021 53 135 4.0 17.0 0.00 0.00 0.00 92 1033.4
20260501200016 53 113 4.0 19.0 0.00 0.00 0.00 91 1033.5
20260501193017 53 135 4.0 12.0 0.00 0.00 0.00 91 1033.5
20260501190016 52 113 3.0 14.0 0.00 0.00 0.00 91 1033.3
20260501183016 52 113 4.0 14.0 0.00 0.00 0.00 89 1033.5
20260501180018 53 135 4.0 15.0 0.00 0.00 0.00 87 1033.8
20260501173018 52 135 3.0 10.0 0.00 0.00 0.00 89 1033.8
20260501170018 52 135 3.0 10.0 0.00 0.00 0.00 89 1034.2
20260501163039 52 113 3.0 11.0 0.00 0.00 0.00 90 1034.3
20260501160038 52 158 3.0 11.0 0.00 0.00 0.00 90 1034.3